Regional Weather Roundup
Issued by NWS Huntsville, AL

Home | Current Version | Previous Version | Text Only | Print | Product List | Glossary On
Versions: 1 2 3 4 5 6 7 8 9 10 11 12 13 14 15 16 17 18 19 20 21 22 23 24 25 26 27
000
ASUS44 KHUN 200010
RWRHUN

WEATHER ROUNDUP FOR THE TENNESSEE VALLEY
NATIONAL WEATHER SERVICE HUNTSVILLE AL
700 PM CDT SAT AUG 19 2017

ALZ001>004-200100-
NORTHWEST ALABAMA

CITY           SKY/WX    TMP DP  RH WIND       PRES   REMARKS
COURTLAND HCN    N/A     86 N/A N/A E3          N/A
RUSSELLVILLE     N/A     82 N/A N/A MISG        N/A
SHOALS AIRPORT CLEAR     88  71  57 CALM      29.96R HX  94
6HR MIN TEMP:  87; 6HR MAX TEMP:  94;

SHOALS TVA RES   N/A     88 N/A N/A MISG        N/A
$$

ALZ005>007-016-200100-
NORTH CENTRAL ALABAMA

CITY           SKY/WX    TMP DP  RH WIND       PRES   REMARKS
CULLMAN AG STN   N/A     84 N/A N/A CALM        N/A
DECATUR AP     CLEAR     84  77  79 CALM      29.96R HX  94
6HR MIN TEMP:  84; 6HR MAX TEMP:  92;

HUNTSVILLE AP  CLEAR     86  73  65 SE3       29.96R HX  93
6HR MIN TEMP:  86; 6HR MAX TEMP:  93;

MERIDIANVILLE  CLEAR     81  68  65 CALM      29.97S
REDSTONE ARSN  CLEAR     86  70  58 CALM      29.95S HX  90
VINEMONT AP    FAIR     N/A N/A N/A CALM      30.00R
$$

ALZ008>010-200100-
NORTHEAST ALABAMA

CITY           SKY/WX    TMP DP  RH WIND       PRES   REMARKS
ALBERTVILLE    CLEAR     84  75  74 CALM      29.98S HX  92
FORT PAYNE     CLEAR     82  64  54 CALM      29.98R
SCOTTSBORO HCN   N/A     82 N/A N/A MISG        N/A
VALLEY HEAD      N/A     77 N/A N/A MISG        N/A
$$

TNZ076-096-097-200100-
SOUTHEASTERN MIDDLE TENNESSEE

CITY           SKY/WX    TMP DP  RH WIND       PRES   REMARKS
TULLAHOMA      CLEAR     82  68  61 S3        30.00S
WINCHESTER     CLEAR     84  66  54 CALM      29.99R
$$

...SURROUNDING SITES...

CITY           SKY/WX    TMP DP  RH WIND       PRES   REMARKS
ATLANTA        PTCLDY    84  67  56 W6        29.98R
ANNISTON       CLEAR     86  71  60 CALM      29.97S HX  91
BIRMINGHAM     PTCLDY    88  70  55 N3        29.99R HX  93
CHATTANOOGA    PTCLDY    86  64  47 SW5       29.97R
DALTON         NOT AVBL
GADSDEN        CLEAR     88  71  57 CALM      29.96S HX  94
GOLDEN TRNGL   PTCLDY    90  72  55 E5        29.90R HX  96
HALEYVILLE     FAIR      86  77  74 CALM      29.99S HX  97
JACKSON TN     CLEAR     88  73  61 NW5       29.94S HX  95
MEMPHIS        PTCLDY    89  73  59 NW3       29.93S HX  97
NASHVILLE      PTCLDY    88  66  48 W5        29.96R HX  90
OXFORD MS      FAIR      88  72  58 W3        29.97R HX  94
ROME           CLEAR     85  70  60 CALM      29.96R
SAVANNAH       CLEAR     88  75  66 CALM      29.93R HX  97
SELMER         CLEAR     86  75  70 CALM      29.94R HX  95
TUPELO         CLEAR     91  69  48 CALM      29.93S HX  96
TUSCALOOSA     CLEAR     84  76  76 S6        29.95R HX  93
$$

...GULF COAST WEATHER...

CITY           SKY/WX    TMP DP  RH WIND       PRES   REMARKS
GULFPORT       CLOUDY    79  73  82 NE3       29.95F
PASCAGOULA     CLOUDY    76  72  87 CALM      29.95S
MOBILE         MOCLDY    75  72  90 NW5       29.98R
GULF SHORES    CLOUDY    78  75  90 CALM      29.94S
PENSACOLA      CLOUDY    82  73  74 N3        29.93F
DESTIN         PTCLDY    90  73  57 SW6       29.94S HX  98
PANAMA CITY    CLEAR     85  75  71 SW6       29.95R HX  94
APPALACHICOLA  CLEAR     85  76  74 SW5       29.94S HX  94
$$





USA.gov is the U.S. government's official web portal to all federal, state and local government web resources and services.